sat.trackr.live / text

‹ back to catalog

STARLINK-3298

NORAD 50165 · 2021-125K

PAYLOAD ACTIVE UNKNOWN

§ Identity

Operator
Country
US
Launch date
2021-12-18
Launch site
AFWTR
Launch vehicle
Mass (kg)
RCS (m²)

Purposes: comms

External: N2YO · Heavens-Above · Gunter

§ Orbital elements

Epoch: 2026-09-15T21:14:47.541408Z

Period
93.85 min
Inclination
53.1588°
Eccentricity
0.0001122
Mean motion
15.34396696 rev/d
Perigee alt
461.9 km
Apogee alt
463.5 km
Semi-major
6,840.9 km
B*
3.4680e-5
RAAN
112.9432°
Arg perigee
89.1122°
Mean anomaly
271.0009°
Rev number
26,538

§ Raw data

STARLINK-32981 50165U 21125K   26258.88527247  .00000796  00000+0  34680-4 0  99902 50165  53.1588 112.9432 0001122  89.1122 271.0009 15.34396696265385

JSON: /api/v1/satellites/50165 · /tle

For live sub-satellite position, see the globe view (requires WebGL).

§ Visibility from observer

Set your observer location to see the next 7 days of passes ≥ 10°. The values pass through the URL so the page stays shareable.

No JS? Fill the form by hand. The geolocation button needs JavaScript.